KB3HHA Weather Reports


Display with metric or nautical units.
time (UTC)temp
F
wind
direction
speed
MPH
gust
MPH
rain 1hr
in
rain 24hr
in
rain mn
in
humidity
%
barometer
mb
20171212200412 44 157 2.0 9.0 0.00 0.00 0.00 56 1000.0
20171212195912 44 135 1.0 7.0 0.00 0.00 0.00 55 999.9
20171212195412 44 157 2.0 7.0 0.00 0.00 0.00 56 999.9
20171212194912 44 135 3.0 7.0 0.00 0.00 0.00 59 999.8
20171212194412 44 157 1.0 6.0 0.00 0.00 0.00 61 999.7
20171212193912 44 112 1.0 10.0 0.00 0.00 0.00 62 999.7
20171212193413 44 157 1.0 10.0 0.00 0.00 0.00 62 999.5
20171212192912 44 180 3.0 9.0 0.00 0.00 0.00 63 999.5
20171212192412 43 135 4.0 9.0 0.00 0.00 0.00 65 999.4
20171212191912 44 315 2.0 7.0 0.00 0.00 0.00 66 999.3
20171212191412 44 135 2.0 7.0 0.00 0.00 0.00 65 999.4
20171212190912 44 0 1.0 6.0 0.00 0.00 0.00 65 999.3
20171212190413 45 135 2.0 4.0 0.00 0.00 0.00 65 999.4
20171212185913 45 112 1.0 9.0 0.00 0.00 0.00 64 999.5
20171212185412 45 180 3.0 9.0 0.00 0.00 0.00 62 999.5
20171212184913 45 112 2.0 9.0 0.00 0.00 0.00 60 999.4
20171212184412 46 0 2.0 9.0 0.00 0.00 0.00 59 999.1
20171212183912 46 135 2.0 7.0 0.00 0.00 0.00 58 999.1
20171212183412 46 157 1.0 8.0 0.00 0.00 0.00 58 999.0
20171212182912 46 112 3.0 8.0 0.00 0.00 0.00 59 999.1
20171212182412 46 157 1.0 9.0 0.00 0.00 0.00 58 999.1
20171212181912 46 180 3.0 9.0 0.00 0.00 0.00 58 999.1
20171212181412 46 180 1.0 8.0 0.00 0.00 0.00 59 999.1
20171212180913 46 112 2.0 8.0 0.00 0.00 0.00 60 999.1
20171212180412 45 135 3.0 8.0 0.00 0.00 0.00 59 999.2
20171212175912 45 112 1.0 4.0 0.00 0.00 0.00 60 999.4
20171212175413 45 135 2.0 8.0 0.00 0.01 0.00 59 999.3
20171212174912 46 180 1.0 11.0 0.00 0.01 0.00 59 999.3
20171212174413 46 157 3.0 11.0 0.00 0.01 0.00 60 999.3
20171212173913 46 135 2.0 6.0 0.00 0.01 0.00 61 999.5
20171212173413 45 112 2.0 12.0 0.00 0.01 0.00 61 999.6
20171212172913 45 157 3.0 12.0 0.00 0.01 0.00 62 999.6
20171212172412 44 180 1.0 8.0 0.00 0.01 0.00 63 999.7
20171212171912 43 180 3.0 8.0 0.00 0.01 0.00 67 999.7
20171212171412 43 202 1.0 5.0 0.00 0.01 0.00 71 999.7
20171212170913 42 202 1.0 5.0 0.00 0.01 0.00 72 999.7
20171212170413 42 157 1.0 2.0 0.00 0.01 0.00 73 999.7
20171212165913 42 202 0.0 2.0 0.00 0.01 0.00 73 999.8
20171212165413 42 202 0.0 2.0 0.00 0.04 0.00 73 999.9
20171212164912 42 225 0.0 0.0 0.00 0.04 0.00 74 999.9
20171212164413 42 225 0.0 0.0 0.00 0.04 0.00 74 1000.0
20171212163913 41 225 0.0 0.0 0.00 0.04 0.00 74 1000.1
20171212163413 41 202 0.0 0.0 0.00 0.04 0.00 75 1000.1
20171212162913 41 180 0.0 0.0 0.00 0.04 0.00 74 1000.2
20171212162413 41 202 0.0 0.0 0.00 0.04 0.00 74 1000.3
20171212161913 41 202 0.0 0.0 0.00 0.04 0.00 75 1000.4
20171212161413 41 202 0.0 0.0 0.00 0.04 0.00 75 1000.5
20171212160913 41 180 0.0 0.0 0.00 0.04 0.00 75 1000.6
20171212160412 40 180 0.0 0.0 0.00 0.04 0.00 75 1000.7
20171212155913 40 180 0.0 0.0 0.00 0.04 0.00 75 1000.8
20171212155413 40 157 0.0 0.0 0.00 0.06 0.00 76 1000.8
20171212154913 40 202 0.0 0.0 0.00 0.06 0.00 75 1000.9
20171212154413 40 225 0.0 0.0 0.00 0.06 0.00 75 1000.9
20171212153913 40 225 0.0 0.0 0.00 0.06 0.00 75 1001.1
20171212153413 40 225 0.0 0.0 0.00 0.06 0.00 75 1001.1
20171212152913 40 225 0.0 0.0 0.00 0.06 0.00 75 1001.1
20171212152413 40 225 0.0 0.0 0.00 0.06 0.00 75 1001.2
20171212151913 40 202 0.0 0.0 0.00 0.06 0.00 75 1001.2
20171212151413 40 225 0.0 0.0 0.00 0.06 0.00 76 1001.3
20171212150913 40 225 0.0 0.0 0.00 0.06 0.00 76 1001.2
20171212150414 40 225 0.0 0.0 0.00 0.06 0.00 76 1001.3
20171212145913 40 225 0.0 0.0 0.00 0.06 0.00 76 1001.3
20171212145413 40 202 0.0 0.0 0.00 0.06 0.00 76 1001.3
20171212144913 40 225 0.0 0.0 0.00 0.06 0.00 76 1001.3
20171212144413 40 225 0.0 0.0 0.00 0.06 0.00 77 1001.5
20171212143913 40 225 0.0 0.0 0.00 0.06 0.00 77 1001.5
20171212143413 39 202 0.0 0.0 0.00 0.06 0.00 77 1001.6
20171212142913 39 202 0.0 0.0 0.00 0.06 0.00 77 1001.6
20171212142413 39 202 0.0 1.0 0.00 0.06 0.00 77 1001.6
20171212141913 39 202 0.0 1.0 0.00 0.06 0.00 78 1001.6
20171212141413 39 225 0.0 0.0 0.00 0.06 0.00 78 1001.7
20171212140913 39 225 0.0 0.0 0.00 0.06 0.00 78 1001.6
20171212140413 39 225 0.0 0.0 0.00 0.06 0.00 78 1001.7
20171212135913 39 225 0.0 0.0 0.00 0.06 0.00 79 1001.7
20171212135413 39 225 0.0 0.0 0.00 0.06 0.00 78 1001.6
20171212134913 39 225 0.0 0.0 0.00 0.06 0.00 78 1001.7
20171212134413 38 225 0.0 0.0 0.00 0.06 0.00 78 1001.9
20171212133913 38 225 0.0 0.0 0.00 0.06 0.00 78 1002.1
20171212133413 38 225 0.0 0.0 0.00 0.06 0.00 78 1002.1
20171212132913 38 225 0.0 0.0 0.00 0.06 0.00 78 1002.1
20171212132413 38 225 0.0 0.0 0.00 0.06 0.00 79 1002.1
20171212131913 38 225 0.0 0.0 0.00 0.06 0.00 78 1002.0
20171212131413 38 225 0.0 0.0 0.00 0.06 0.00 78 1002.0
20171212130913 38 225 0.0 0.0 0.00 0.06 0.00 78 1001.9
20171212130413 38 225 0.0 0.0 0.00 0.06 0.00 79 1002.0
20171212125913 38 225 0.0 0.0 0.00 0.06 0.00 79 1002.0
20171212125413 38 225 0.0 0.0 0.00 0.06 0.00 79 1002.0
20171212124913 39 225 0.0 0.0 0.00 0.06 0.00 79 1002.1
20171212124413 39 225 0.0 0.0 0.00 0.06 0.00 78 1002.3
20171212123913 39 225 0.0 0.0 0.00 0.06 0.00 78 1002.3
20171212123413 39 225 0.0 0.0 0.00 0.06 0.00 78 1002.2
20171212122913 39 225 0.0 0.0 0.00 0.06 0.00 77 1002.2
20171212122413 39 247 0.0 0.0 0.00 0.06 0.00 77 1002.2
20171212121913 39 270 0.0 0.0 0.00 0.06 0.00 77 1002.2
20171212121413 39 270 0.0 0.0 0.00 0.06 0.00 77 1002.1
20171212120913 39 270 0.0 0.0 0.00 0.06 0.00 76 1002.0
20171212120413 39 270 0.0 0.0 0.00 0.06 0.00 75 1002.0
20171212115913 39 270 0.0 0.0 0.00 0.06 0.00 74 1001.9
20171212115413 40 270 0.0 0.0 0.00 0.06 0.00 74 1002.1
20171212114913 40 247 0.0 0.0 0.00 0.06 0.00 73 1002.0
20171212114413 40 247 0.0 0.0 0.00 0.06 0.00 73 1002.1
20171212113913 40 247 0.0 0.0 0.00 0.06 0.00 73 1002.1
20171212113413 40 225 0.0 0.0 0.00 0.06 0.00 73 1002.1
20171212112913 40 225 0.0 0.0 0.00 0.06 0.00 73 1002.1
20171212112413 40 225 0.0 0.0 0.00 0.06 0.00 73 1002.1
20171212111913 40 247 0.0 0.0 0.00 0.06 0.00 73 1002.1
20171212111413 40 270 0.0 0.0 0.00 0.06 0.00 73 1002.1
20171212110913 40 270 0.0 0.0 0.00 0.06 0.00 72 1002.2
20171212110414 40 247 0.0 3.0 0.00 0.06 0.00 72 1002.1
20171212105913 40 225 0.0 3.0 0.00 0.06 0.00 72 1002.1
20171212105414 40 225 1.0 2.0 0.00 0.06 0.00 72 1002.2
20171212104913 40 225 0.0 2.0 0.00 0.06 0.00 72 1002.2
20171212104413 40 225 0.0 2.0 0.00 0.06 0.00 71 1002.4
20171212103914 40 225 0.0 2.0 0.00 0.06 0.00 71 1002.5
20171212103413 40 247 0.0 3.0 0.00 0.06 0.00 71 1002.7
20171212102913 40 247 0.0 5.0 0.00 0.06 0.00 71 1002.9
20171212102414 40 225 1.0 5.0 0.00 0.06 0.00 71 1003.0
20171212101913 40 225 0.0 0.0 0.00 0.06 0.00 71 1003.2
20171212101413 40 247 0.0 0.0 0.00 0.06 0.00 71 1003.3
20171212100913 41 247 0.0 0.0 0.00 0.06 0.00 71 1003.3
20171212100413 41 270 0.0 0.0 0.00 0.06 0.00 71 1003.2
20171212095913 41 270 0.0 0.0 0.00 0.06 0.00 71 1003.3
20171212095413 41 247 0.0 0.0 0.00 0.06 0.00 70 1003.5
20171212094914 41 247 0.0 1.0 0.00 0.06 0.00 70 1003.5
20171212094414 41 247 0.0 4.0 0.00 0.06 0.00 70 1003.6
20171212093914 41 225 2.0 4.0 0.00 0.06 0.00 71 1003.6
20171212093414 41 247 0.0 0.0 0.00 0.06 0.00 71 1003.5
20171212092914 41 247 0.0 0.0 0.00 0.06 0.00 71 1003.3
20171212092414 41 225 0.0 0.0 0.00 0.06 0.00 71 1003.8
20171212091913 41 247 0.0 0.0 0.00 0.06 0.00 71 1003.8
20171212091413 41 225 0.0 0.0 0.00 0.06 0.00 70 1004.2
20171212090913 41 225 0.0 0.0 0.00 0.06 0.00 70 1004.1
20171212090414 41 225 0.0 0.0 0.00 0.06 0.00 70 1004.2
20171212085914 41 202 0.0 3.0 0.00 0.06 0.00 71 1004.2
20171212085414 41 225 0.0 3.0 0.00 0.06 0.00 71 1004.5
20171212084914 41 247 1.0 3.0 0.00 0.06 0.00 71 1004.7
20171212084414 41 247 0.0 1.0 0.00 0.06 0.00 71 1004.9
20171212083914 40 202 0.0 4.0 0.00 0.06 0.00 71 1004.9
20171212083414 40 225 0.0 4.0 0.00 0.06 0.00 72 1004.8
20171212082914 41 247 0.0 2.0 0.00 0.06 0.00 72 1004.9
20171212082414 41 247 0.0 3.0 0.00 0.06 0.00 72 1005.0
20171212081914 40 225 0.0 3.0 0.00 0.06 0.00 72 1005.2
20171212081414 41 225 0.0 2.0 0.00 0.06 0.00 72 1005.3
20171212080914 41 247 0.0 2.0 0.00 0.06 0.00 72 1005.5
20171212080414 41 247 0.0 3.0 0.00 0.06 0.00 72 1005.4
20171212075914 41 247 0.0 3.0 0.00 0.06 0.00 72 1005.4
20171212075414 41 247 0.0 2.0 0.00 0.06 0.00 72 1005.5
20171212074914 41 225 1.0 4.0 0.00 0.06 0.00 72 1005.7
20171212074414 41 247 1.0 5.0 0.00 0.06 0.00 72 1005.9
20171212073914 41 225 1.0 5.0 0.00 0.06 0.00 73 1006.0
20171212073414 40 247 1.0 4.0 0.00 0.06 0.00 73 1006.1
20171212072914 40 247 1.0 4.0 0.00 0.06 0.00 73 1006.2
20171212072414 40 247 1.0 3.0 0.00 0.06 0.00 74 1006.4
20171212071914 40 225 0.0 3.0 0.00 0.06 0.00 74 1006.1
20171212071414 40 247 0.0 3.0 0.00 0.06 0.00 75 1006.4
20171212070914 40 225 0.0 2.0 0.00 0.06 0.00 75 1006.4
20171212070414 40 247 0.0 2.0 0.00 0.06 0.00 76 1006.4
20171212065914 40 247 0.0 2.0 0.00 0.06 0.00 76 1006.6
20171212065414 40 247 0.0 2.0 0.00 0.06 0.00 76 1006.8
20171212064914 40 225 1.0 2.0 0.00 0.06 0.00 76 1007.0
20171212064414 40 225 0.0 2.0 0.00 0.06 0.00 76 1006.9
20171212063914 40 247 0.0 2.0 0.00 0.06 0.00 76 1007.1
20171212063414 40 247 0.0 3.0 0.00 0.06 0.00 76 1007.3
20171212062914 40 225 1.0 4.0 0.00 0.06 0.00 76 1007.4
20171212062415 40 225 0.0 4.0 0.00 0.06 0.00 76 1007.6
20171212061914 40 247 0.0 3.0 0.00 0.06 0.00 76 1007.7
20171212061414 40 270 1.0 3.0 0.00 0.06 0.00 77 1007.8
20171212060914 40 247 0.0 2.0 0.00 0.06 0.00 76 1007.9
20171212060414 40 247 0.0 2.0 0.00 0.06 0.00 76 1007.9
20171212055914 40 247 1.0 2.0 0.00 0.06 0.00 76 1008.0
20171212055414 40 270 0.0 1.0 0.00 0.06 0.00 77 1008.1
20171212054914 40 270 0.0 0.0 0.00 0.06 0.00 76 1008.3
20171212054414 40 270 0.0 0.0 0.00 0.06 0.00 76 1008.4
20171212053914 40 270 0.0 0.0 0.00 0.06 0.00 76 1008.5
20171212053414 40 225 0.0 2.0 0.00 0.06 0.00 76 1008.8
20171212052914 40 225 0.0 2.0 0.00 0.06 0.00 76 1008.8
20171212052414 40 247 0.0 2.0 0.00 0.06 0.00 76 1008.8
20171212051914 40 247 0.0 4.0 0.00 0.06 0.00 76 1009.0
20171212051414 40 292 1.0 4.0 0.00 0.06 0.00 76 1009.3
20171212050914 40 247 0.0 1.0 0.00 0.06 0.00 76 1009.5
20171212050414 40 292 0.0 1.0 0.00 0.06 0.00 76 1009.6
20171212045914 40 270 0.0 1.0 0.00 0.06 0.00 76 1009.3
20171212045414 40 247 0.0 3.0 0.00 0.06 0.06 75 1009.2
20171212044914 40 247 1.0 5.0 0.00 0.06 0.06 75 1009.4
20171212044414 40 247 1.0 5.0 0.00 0.06 0.06 75 1009.3
20171212043914 40 225 0.0 2.0 0.00 0.06 0.06 75 1009.5
20171212043414 40 247 0.0 2.0 0.00 0.06 0.06 76 1009.6
20171212042914 40 247 0.0 3.0 0.00 0.06 0.06 76 1009.8
20171212042414 40 247 0.0 3.0 0.00 0.06 0.06 75 1010.1
20171212041914 40 225 0.0 3.0 0.00 0.06 0.06 75 1010.0
20171212041414 40 225 0.0 3.0 0.00 0.06 0.06 75 1010.0
20171212040914 40 247 0.0 3.0 0.00 0.06 0.06 74 1010.0
20171212040414 40 247 1.0 3.0 0.00 0.06 0.06 75 1009.9
20171212035914 40 247 0.0 3.0 0.00 0.06 0.06 74 1010.1
20171212035414 40 247 1.0 2.0 0.00 0.06 0.06 74 1010.3
20171212034914 40 270 0.0 4.0 0.00 0.06 0.06 73 1010.5
20171212034415 40 225 1.0 4.0 0.00 0.06 0.06 73 1010.9
20171212033915 40 247 1.0 4.0 0.00 0.06 0.06 73 1010.9
20171212033414 40 247 1.0 4.0 0.00 0.06 0.06 73 1010.9
20171212032914 40 247 0.0 3.0 0.00 0.06 0.06 73 1011.0
20171212032414 40 225 0.0 6.0 0.00 0.06 0.06 72 1011.1
20171212031914 40 247 1.0 6.0 0.00 0.06 0.06 72 1011.1
20171212031414 40 247 0.0 3.0 0.00 0.06 0.06 71 1011.3
20171212030915 40 247 0.0 3.0 0.00 0.06 0.06 71 1011.5
20171212030414 40 247 1.0 4.0 0.00 0.06 0.06 71 1011.4
20171212025914 40 270 1.0 4.0 0.00 0.06 0.06 71 1011.5
20171212025414 40 247 1.0 4.0 0.00 0.06 0.06 71 1011.6
20171212024915 40 270 0.0 4.0 0.00 0.06 0.06 71 1011.7
20171212024415 40 247 1.0 5.0 0.00 0.06 0.06 70 1011.8
20171212023915 40 247 1.0 5.0 0.00 0.06 0.06 70 1011.8
20171212023415 40 225 1.0 3.0 0.00 0.06 0.06 70 1011.8
20171212022915 39 247 1.0 3.0 0.00 0.06 0.06 70 1011.9
20171212022414 39 247 1.0 3.0 0.00 0.06 0.06 71 1011.9
20171212021915 39 247 1.0 4.0 0.00 0.06 0.06 71 1012.0
20171212021415 39 247 1.0 4.0 0.00 0.06 0.06 71 1012.0
20171212020915 39 247 1.0 4.0 0.00 0.06 0.06 71 1012.3
20171212020414 39 247 1.0 4.0 0.00 0.06 0.06 71 1012.3
20171212015914 39 247 0.0 2.0 0.00 0.06 0.06 70 1012.3
20171212015414 38 225 0.0 2.0 0.00 0.06 0.06 71 1012.4
20171212014914 38 247 0.0 2.0 0.00 0.06 0.06 71 1012.5
20171212014415 38 247 0.0 1.0 0.00 0.06 0.06 71 1012.6
20171212013915 38 247 0.0 1.0 0.00 0.06 0.06 71 1012.6
20171212013414 38 247 0.0 2.0 0.00 0.06 0.06 70 1012.7
20171212012915 38 247 0.0 2.0 0.00 0.06 0.06 70 1012.7
20171212012414 38 247 0.0 2.0 0.00 0.06 0.06 71 1012.8
20171212011914 38 270 0.0 0.0 0.00 0.06 0.06 71 1012.9
20171212011414 38 247 0.0 1.0 0.00 0.06 0.06 70 1013.0
20171212010915 38 247 0.0 4.0 0.00 0.06 0.06 71 1013.0
20171212010415 37 247 1.0 4.0 0.00 0.06 0.06 73 1013.1
20171212005914 37 225 0.0 0.0 0.00 0.06 0.06 75 1013.1
20171212005415 36 270 0.0 0.0 0.00 0.06 0.06 75 1013.0
20171212004915 36 270 0.0 1.0 0.00 0.06 0.06 76 1013.0
20171212004415 35 247 0.0 1.0 0.00 0.06 0.06 79 1013.1
20171212003915 34 247 0.0 2.0 0.00 0.06 0.06 80 1013.1
20171212003415 34 292 0.0 2.0 0.00 0.06 0.06 82 1013.2
20171212002915 34 270 0.0 0.0 0.00 0.06 0.06 83 1013.3
20171212002415 34 270 0.0 0.0 0.00 0.06 0.06 83 1013.2
20171212001915 34 270 0.0 0.0 0.00 0.06 0.06 83 1013.2
20171212001415 33 270 0.0 0.0 0.00 0.06 0.06 82 1013.3
20171212000915 34 270 0.0 0.0 0.00 0.06 0.06 82 1013.3
20171212000415 34 270 0.0 0.0 0.00 0.06 0.06 81 1013.4
20171211235915 34 270 0.0 0.0 0.00 0.06 0.06 81 1013.4
20171211235415 34 270 0.0 0.0 0.00 0.06 0.06 81 1013.6
20171211234915 34 270 0.0 0.0 0.00 0.06 0.06 81 1013.7
20171211234415 35 270 0.0 0.0 0.00 0.06 0.06 81 1013.7
20171211233915 35 270 0.0 0.0 0.00 0.06 0.06 80 1013.7
20171211233415 35 270 0.0 0.0 0.00 0.06 0.06 80 1013.8
20171211232915 35 270 0.0 0.0 0.00 0.06 0.06 79 1013.8
20171211232415 35 270 0.0 0.0 0.00 0.06 0.06 78 1013.6
20171211231915 36 270 0.0 0.0 0.00 0.06 0.06 77 1013.5
20171211231415 36 270 0.0 0.0 0.00 0.06 0.06 77 1013.3
20171211230915 36 270 0.0 0.0 0.00 0.06 0.06 76 1013.3
20171211230415 36 270 0.0 0.0 0.00 0.06 0.06 74 1013.4
20171211225916 37 270 0.0 0.0 0.00 0.06 0.06 74 1013.5
20171211225415 37 270 0.0 0.0 0.00 0.06 0.06 72 1013.4
20171211224915 37 270 0.0 0.0 0.00 0.06 0.06 71 1013.4
20171211224415 37 270 0.0 0.0 0.00 0.06 0.06 73 1013.4
20171211223915 38 270 0.0 0.0 0.00 0.06 0.06 72 1013.3
20171211223415 38 270 0.0 0.0 0.00 0.06 0.06 71 1013.4
20171211222915 39 270 0.0 0.0 0.00 0.06 0.06 71 1013.6
20171211222415 39 270 0.0 0.0 0.00 0.06 0.06 68 1013.8
20171211221915 39 270 0.0 0.0 0.00 0.06 0.06 66 1013.6
20171211221415 40 270 0.0 0.0 0.00 0.06 0.06 66 1013.5
20171211220915 41 270 0.0 0.0 0.00 0.06 0.06 64 1013.6
20171211220415 41 270 0.0 0.0 0.00 0.06 0.06 64 1013.5
20171211215915 42 270 0.0 0.0 0.00 0.06 0.06 61 1013.7
20171211215415 42 270 0.0 0.0 0.00 0.07 0.06 57 1013.9
20171211214915 43 270 0.0 0.0 0.00 0.07 0.06 57 1013.9
20171211214415 44 270 0.0 0.0 0.00 0.07 0.06 55 1014.0
20171211213915 44 270 0.0 0.0 0.00 0.07 0.06 53 1014.3
20171211213415 45 270 0.0 0.0 0.00 0.07 0.06 53 1014.3
20171211212915 45 270 0.0 0.0 0.00 0.07 0.06 54 1014.4
20171211212415 45 247 0.0 0.0 0.00 0.07 0.06 51 1014.4
20171211211916 45 225 0.0 0.0 0.00 0.07 0.06 51 1014.3
20171211211415 45 225 0.0 0.0 0.00 0.07 0.06 51 1014.2
20171211210915 45 225 0.0 0.0 0.00 0.07 0.06 51 1014.3
20171211210415 45 225 0.0 0.0 0.00 0.07 0.06 50 1014.4
20171211205915 45 225 0.0 0.0 0.00 0.07 0.06 52 1014.5
20171211205415 46 225 0.0 0.0 0.00 0.08 0.06 52 1014.5
20171211204915 46 135 0.0 0.0 0.00 0.08 0.06 52 1014.5
20171211204415 46 135 0.0 0.0 0.00 0.08 0.06 53 1014.6
20171211203915 46 135 0.0 0.0 0.00 0.08 0.06 50 1014.7
20171211203416 46 135 0.0 0.0 0.00 0.08 0.06 50 1014.7
20171211202915 46 135 0.0 0.0 0.00 0.08 0.06 49 1014.9
20171211202415 46 135 0.0 0.0 0.00 0.08 0.06 50 1014.9
20171211201915 46 225 0.0 0.0 0.00 0.08 0.06 49 1014.7
20171211201415 46 225 0.0 0.0 0.00 0.08 0.06 48 1014.5
20171211200915 46 225 0.0 2.0 0.00 0.08 0.06 48 1014.2